Bentonsport, Iowa
Current Conditions -  °F | °C
As of 6:15 PM on Friday 19 Dec 2014 (Local Time) from KFFL Reporting Station
Overcast Overcast  
Wind Chill: 23°   Ceiling: 4800
Heat Index: 30°   Visibility: 8mi
Dew Point: 25°   Wind: 7mph
Humidity: 80%   Direction: 110°ESE
Pressure: 30.24"   Gusts: NA
Location:  40.7687°N, 92.0788°W
Report Text: KFFL 200015Z AUTO 11006KT 8SM OVC048 M01/M04 A3024 RMK AO2
Loading
Personal Weather Stations






























Interactive Weather Map New forecast layout! Learn more

10-Day Weather Forecast

Advertisements
Track Severe Weather on mobile